GFSGBSN_925_spd_123.txt.gz
Wind_Speed
27 25 22 20 20 17 14 13 11 9 8 9 10 12 8 9 10 12 13 15 18 19 13 11 13 12 2 1 4 9 13 15 15 17 9 7 6 7 7 8 10 9 8 12 13 15 15
31 30 27 25 23 17 13 11 12 10 9 9 11 11 9 10 12 12 14 17 19 13 9 10 12 6 2 2 6 12 13 13 15 16 19 13 7 9 9 7 8 7 17 17 16 17 14
36 33 29 30 23 18 14 13 11 10 9 9 10 11 10 11 14 14 15 18 18 9 7 8 8 3 3 2 4 13 12 10 10 10 5 17 19 6 9 10 8 8 12 14 16 11 14
40 36 34 30 25 20 17 14 11 10 9 10 10 11 11 13 14 14 17 16 15 6 4 4 4 2 1 2 4 14 9 10 13 21 12 15 14 6 5 9 10 8 7 7 11 10 16
44 39 36 29 24 21 18 15 12 11 11 11 11 11 12 15 14 13 17 16 10 2 3 1 4 1 2 1 10 10 10 5 15 20 13 18 3 5 5 6 8 5 8 9 21 14 16
45 40 36 29 25 22 18 15 13 12 11 11 10 10 12 13 12 13 18 12 5 5 5 1 10 4 2 2 9 14 11 15 11 10 8 6 2 2 3 1 10 8 8 13 17 18 13
51 46 36 30 27 23 18 14 12 11 11 10 10 10 11 12 8 11 20 2 3 2 4 1 2 3 3 7 12 2 14 13 10 7 6 8 6 7 14 10 17 17 18 22 24 23 19
52 47 37 32 28 25 21 15 12 11 11 10 8 10 11 11 5 11 7 3 4 1 4 5 2 4 5 5 3 6 11 6 6 7 10 6 6 8 19 17 16 17 20 23 25 19 16
53 45 36 33 32 26 19 15 13 10 9 9 7 9 10 8 4 4 13 6 3 3 1 6 5 2 2 4 2 3 3 3 6 6 9 6 11 12 16 18 20 22 20 18 24 26 23
53 43 39 33 26 25 21 17 14 11 9 8 7 8 8 4 2 4 3 4 5 3 2 8 5 3 4 4 1 4 4 4 2 8 9 3 6 13 15 19 19 24 17 21 23 22 17
48 43 36 30 28 25 21 18 14 12 10 9 7 6 2 4 5 3 4 4 3 1 1 9 5 6 4 1 2 3 7 2 8 13 4 5 13 16 17 15 19 15 19 22 22 19 20
49 41 36 33 29 25 22 18 14 11 10 8 6 4 0 1 2 4 5 2 2 3 4 2 5 4 2 5 3 1 4 8 7 3 9 11 7 13 16 18 16 21 16 19 18 13 16
40 37 36 30 26 22 19 16 14 12 10 7 5 3 2 1 1 3 2 2 3 3 5 6 3 4 3 6 2 3 4 6 4 6 7 15 6 14 13 22 23 11 10 6 6 7 14
36 33 30 29 25 21 17 14 13 12 9 5 4 4 4 2 4 2 3 2 2 5 5 4 2 3 4 2 2 5 6 4 4 5 5 8 20 8 16 19 16 22 13 10 7 4 12
33 31 30 27 22 18 16 15 14 10 7 5 3 4 3 6 3 1 3 2 3 3 4 3 3 4 2 6 4 6 6 1 2 2 3 6 12 18 14 16 10 8 6 14 12 13 10
29 30 25 22 18 16 15 13 10 9 6 5 1 5 4 4 3 1 3 3 3 5 5 3 1 3 2 5 4 6 3 3 5 4 2 5 19 10 11 18 4 13 11 5 2 4 5
26 23 21 20 20 17 16 14 10 9 8 5 1 1 3 4 3 3 3 4 6 8 4 1 2 3 4 4 2 3 4 8 5 5 7 4 2 16 9 6 20 10 8 6 5 7 3
26 24 20 20 19 18 16 14 9 10 7 5 2 2 4 4 2 3 3 3 2 10 4 1 1 1 4 3 2 4 4 4 3 2 6 1 4 8 23 22 11 3 13 6 5 4 7
22 23 21 20 19 18 17 14 12 10 9 2 2 3 2 2 3 2 4 4 2 2 5 5 4 4 3 2 4 3 6 8 10 6 1 3 4 7 15 3 1 16 21 18 13 7 6
22 23 20 18 20 19 16 11 11 9 7 1 2 3 1 1 2 2 2 4 5 2 4 4 1 5 4 5 6 5 9 5 10 10 4 2 4 2 8 16 18 23 28 24 12 5 6
23 24 22 18 22 19 16 13 12 10 8 3 1 1 4 2 2 3 3 2 4 4 3 2 2 7 6 4 5 6 8 10 14 13 7 4 3 11 16 19 22 23 18 20 19 15 8
21 24 22 19 21 19 17 15 13 11 9 2 2 1 4 1 2 6 3 2 6 5 6 4 3 6 6 4 4 6 8 7 5 10 3 7 5 11 21 17 19 19 9 18 14 19 13
23 24 24 20 19 19 17 16 16 13 10 4 2 2 3 3 2 4 4 4 4 2 6 5 4 5 6 6 6 6 6 10 13 16 21 5 4 6 16 16 20 2 10 16 5 20 17
23 22 23 22 21 19 18 19 17 15 15 7 6 3 2 3 2 5 6 1 2 2 2 4 5 4 4 7 7 9 13 16 19 21 15 16 13 6 9 12 4 6 12 18 12 20 15
24 23 23 24 22 22 19 19 17 16 14 7 7 5 3 1 2 6 7 5 3 5 3 2 6 6 3 6 4 6 5 4 5 5 8 4 5 3 2 5 11 17 17 19 12 8 20
25 24 24 25 24 23 19 18 17 14 11 8 4 7 1 2 2 8 6 7 3 1 4 7 7 8 5 1 1 2 3 4 4 8 4 3 10 4 2 5 1 9 21 25 16 4 24
23 24 25 26 26 25 22 18 16 15 12 10 2 1 3 2 3 5 4 3 2 1 1 3 3 2 3 2 1 3 4 4 3 6 6 5 4 2 3 2 3 17 17 16 9 7 19
22 25 26 27 26 26 24 22 18 16 14 12 6 2 1 1 5 6 7 5 5 4 3 4 4 5 3 1 2 3 2 3 3 3 3 3 5 3 4 4 4 20 6 7 7 8 10
15 23 27 28 29 28 26 23 19 19 15 14 2 7 3 1 3 8 12 12 8 4 3 4 1 1 0 1 2 3 3 3 3 2 4 2 3 1 3 3 3 6 7 8 8 8 10

GFSGBSN_925_spd_126.txt.gz
Wind_Speed
33 31 28 28 24 24 21 17 14 12 11 10 11 12 14 13 12 14 16 16 17 18 17 14 14 12 2 1 1 5 7 7 7 10 10 4 6 5 3 5 8 4 5 9 10 12 8
39 35 32 32 28 26 22 18 15 14 13 10 10 12 13 13 13 14 15 17 17 18 15 13 12 8 3 4 3 7 4 6 9 10 10 6 0 3 4 3 2 6 10 14 7 13 9
44 41 37 36 31 30 25 21 17 15 13 10 9 11 13 13 13 14 16 17 17 17 12 10 8 5 4 3 3 10 10 7 9 8 3 12 6 3 4 7 3 7 10 15 13 7 8
47 45 41 40 35 34 28 23 20 15 14 10 8 11 11 14 13 15 15 17 16 15 10 6 6 2 4 1 2 7 4 8 8 13 11 12 6 4 4 3 6 5 4 6 2 6 7
52 49 46 42 38 36 29 25 21 16 14 10 8 9 11 13 13 14 16 15 15 10 6 5 4 1 3 3 5 9 9 5 12 12 7 9 6 4 5 4 4 4 6 8 21 3 9
56 54 49 45 42 39 32 26 20 16 13 9 6 9 11 13 12 11 16 14 6 6 5 4 6 3 3 0 5 13 6 9 3 5 6 9 5 3 4 6 5 10 12 12 16 11 9
59 57 53 49 47 42 35 28 25 19 13 8 6 9 11 13 10 8 16 2 3 2 2 4 3 3 1 6 6 0 9 4 6 6 4 4 5 2 4 4 6 6 10 18 23 17 13
62 60 57 52 50 43 33 29 25 21 16 14 12 10 10 11 8 7 3 3 1 1 3 6 3 2 3 1 2 4 3 4 5 3 4 6 1 3 6 8 11 14 17 21 26 19 17
64 61 58 53 48 43 34 29 26 22 19 17 15 11 8 7 4 4 9 5 0 2 1 3 5 3 3 4 3 3 3 1 2 4 4 2 5 6 12 11 13 14 13 16 19 25 23
65 65 62 57 50 43 37 32 26 22 20 19 15 9 7 3 1 2 1 2 1 2 3 3 4 3 3 5 3 2 5 4 2 4 4 2 7 11 12 12 8 19 9 14 21 18 16
64 67 63 57 51 45 39 33 27 24 20 16 12 10 6 4 1 3 3 2 2 0 2 7 5 7 3 3 3 0 1 3 3 5 4 3 8 13 11 6 11 13 15 20 19 20 19
65 64 62 55 53 47 39 32 27 23 19 16 13 8 8 3 4 4 3 4 3 2 5 6 5 4 1 1 3 2 5 6 2 4 4 1 4 2 4 13 11 16 11 23 23 10 9
61 59 53 53 48 41 37 32 26 21 19 16 13 11 10 9 4 3 3 3 2 3 8 7 5 5 2 2 3 3 4 6 3 6 5 9 3 3 5 21 10 10 14 6 5 1 12
66 63 58 46 44 37 33 27 25 21 19 15 11 10 9 9 6 3 4 2 3 5 4 3 5 5 4 5 3 3 3 3 2 3 3 5 5 4 7 11 8 14 4 5 7 9 18
53 52 48 48 43 35 33 29 24 23 18 15 11 9 6 10 8 6 2 2 5 2 4 6 4 4 5 4 5 5 3 5 3 3 3 4 4 12 11 5 3 3 4 14 10 11 9
36 40 44 39 36 34 26 26 26 22 18 15 11 8 4 8 8 6 3 4 3 4 5 2 3 3 4 3 4 4 1 3 2 1 4 4 14 5 4 12 3 4 9 7 6 7 6
37 33 35 37 32 29 27 25 23 21 19 16 7 4 7 7 8 4 3 4 3 7 4 3 2 3 4 3 5 3 4 4 1 1 2 1 4 10 5 1 13 7 5 4 7 6 7
33 32 30 30 30 28 26 23 21 20 18 15 5 3 9 8 3 2 3 4 8 4 5 3 3 3 3 4 3 2 4 3 1 2 2 4 3 4 19 22 10 1 11 10 4 9 5
30 27 26 26 26 27 25 20 18 20 19 11 3 3 3 3 4 2 3 4 3 6 4 3 3 1 3 3 2 5 2 2 8 4 3 2 3 6 11 5 4 9 17 17 14 13 11
30 29 30 28 26 24 23 19 18 17 16 6 3 3 3 2 1 3 3 3 4 3 4 4 3 5 4 1 2 2 0 2 6 2 4 0 3 7 6 12 12 14 22 22 9 12 4
29 27 27 27 28 24 21 19 17 16 13 3 2 2 5 3 1 4 1 1 7 4 3 4 2 3 3 3 1 2 3 3 5 1 2 2 2 5 14 16 16 19 15 19 11 20 8
28 26 27 27 26 24 21 17 16 15 12 4 3 3 2 4 6 5 2 3 3 5 6 4 5 5 6 3 3 2 1 2 5 3 1 1 4 6 14 14 10 14 11 15 10 17 21
25 25 23 24 25 22 20 17 16 14 7 3 4 2 3 2 4 5 4 3 4 5 5 6 7 5 4 2 3 5 7 7 8 6 2 2 2 2 7 8 16 2 13 15 8 17 14
22 25 21 22 22 21 19 18 16 14 10 8 5 3 3 1 3 4 6 2 5 1 6 4 8 5 3 1 3 4 7 9 8 10 8 5 5 4 6 7 2 2 7 10 15 16 20
21 23 23 22 23 21 18 17 15 15 9 12 10 3 3 3 2 5 6 4 7 5 3 2 1 4 5 5 3 4 4 5 3 3 5 8 4 2 2 2 4 8 14 12 12 5 20
23 22 23 22 20 19 18 17 14 13 10 7 11 8 3 4 2 3 2 5 4 3 3 2 3 10 5 3 2 1 0 2 2 5 3 2 2 2 2 2 2 5 21 19 14 1 20
24 24 22 23 22 21 18 18 15 13 12 10 7 8 5 3 2 4 4 1 2 4 3 2 3 2 4 2 1 2 3 2 1 2 3 4 3 2 2 3 3 10 19 16 4 6 17
21 26 25 24 22 23 20 18 16 15 13 12 7 8 5 2 2 3 3 4 4 4 4 3 4 4 3 2 2 2 0 2 2 1 1 2 2 2 3 3 2 12 6 6 4 7 9
18 22 29 27 26 24 22 19 18 16 14 11 5 6 5 5 3 2 3 3 3 2 4 3 4 2 3 3 1 1 1 3 1 2 3 1 4 3 4 3 1 3 2 4 4 6 6

GFSGBSN_925_spd_132.txt.gz
Wind_Speed
39 36 34 33 33 31 30 26 25 24 22 20 17 16 15 14 15 14 14 12 12 14 15 15 13 12 3 1 4 4 2 4 4 5 8 3 4 1 2 2 4 3 3 5 5 11 8
43 41 39 37 36 34 33 31 28 27 24 22 19 17 16 14 15 14 13 14 12 13 14 12 9 6 2 2 6 1 4 2 4 5 3 2 2 1 1 1 0 1 3 8 4 7 4
48 41 45 44 41 39 37 35 32 31 27 24 22 19 17 15 14 13 14 13 13 13 12 9 6 3 0 5 4 5 4 1 2 3 3 1 2 3 1 3 2 3 4 5 6 9 4
49 50 47 47 47 44 42 38 35 35 31 26 24 20 17 15 13 14 14 13 14 13 7 4 3 1 4 1 2 2 4 4 2 3 3 3 5 5 3 3 6 5 5 6 7 10 5
33 42 53 52 51 49 47 44 39 38 35 29 26 22 17 15 12 13 14 12 14 7 3 1 1 1 4 0 1 2 3 2 4 3 9 8 5 4 6 3 5 7 4 5 6 9 7
28 32 37 56 54 54 52 48 45 41 38 32 29 23 17 13 9 10 10 12 6 3 1 1 2 1 1 1 0 1 4 4 6 1 4 7 5 4 5 5 1 5 5 5 8 5 5
36 35 32 36 55 57 55 52 50 46 42 36 32 24 18 12 8 7 7 2 3 2 1 5 3 2 0 2 2 1 3 4 4 6 3 4 6 4 4 3 3 4 4 11 10 9 7
41 40 38 34 37 57 57 53 55 51 46 40 35 27 20 14 7 5 2 4 4 3 4 6 4 3 4 1 1 2 2 4 4 4 3 5 4 1 4 2 5 6 8 10 11 1 12
41 41 40 40 38 42 59 53 55 55 50 44 38 30 22 15 7 6 5 7 5 3 1 5 5 4 4 7 4 5 4 3 4 3 3 5 5 2 3 5 4 4 5 5 12 21 10
43 42 42 43 45 44 52 57 57 58 53 48 41 32 22 15 5 11 7 10 4 6 2 5 5 5 5 5 1 3 3 4 2 3 6 4 2 3 4 3 2 4 3 8 12 9 6
37 43 49 51 51 49 46 58 59 55 51 50 41 33 27 21 8 10 11 12 9 2 3 2 4 4 4 6 7 3 3 4 5 3 4 2 0 4 3 3 1 7 7 11 16 12 2
45 47 56 60 57 54 51 54 61 59 55 50 42 34 27 22 9 14 21 15 5 4 7 4 5 6 5 2 2 3 4 7 3 4 5 2 1 4 4 5 2 8 6 9 1 2 2
51 58 64 66 66 61 57 57 60 59 55 49 40 36 33 22 12 22 23 7 3 5 1 6 5 7 6 5 2 4 3 3 3 3 2 5 2 3 1 3 3 7 6 4 5 4 4
55 70 68 67 67 65 63 62 63 56 52 47 39 32 27 20 29 28 14 4 5 8 6 4 5 9 5 5 2 2 5 4 2 4 3 3 2 1 4 2 2 3 1 3 3 4 11
67 71 64 53 59 64 67 67 64 57 52 46 36 25 23 20 29 28 4 3 12 5 7 8 5 5 3 2 6 3 2 6 5 5 5 4 3 2 3 2 5 2 1 5 3 9 5
60 58 46 45 51 63 68 70 67 61 59 52 27 12 10 24 24 17 3 11 7 3 4 4 6 5 5 5 4 4 6 3 4 3 3 5 1 2 4 3 2 3 2 4 2 4 6
53 26 32 34 51 61 71 69 66 59 56 44 28 6 17 34 20 5 7 6 4 2 6 4 4 4 5 5 3 3 6 1 3 4 2 4 3 3 2 1 4 2 2 2 2 2 3
47 23 32 46 65 71 70 66 64 63 54 37 8 6 24 27 6 3 4 5 5 5 4 4 3 5 4 4 4 2 5 4 2 5 3 1 4 1 6 6 5 4 4 3 1 3 5
21 41 43 44 58 63 62 61 60 64 46 32 7 4 10 4 6 9 4 5 3 4 3 4 3 2 3 4 5 4 5 3 4 3 6 5 1 2 5 4 3 1 2 0 6 7 3
24 27 31 35 38 43 51 55 59 50 37 21 4 5 2 2 2 13 6 5 5 6 5 5 4 4 6 4 4 5 4 2 1 3 8 5 3 6 6 6 3 4 6 5 2 4 5
23 27 29 33 33 36 36 42 48 43 22 8 2 4 6 9 3 4 5 6 11 5 3 4 3 3 7 4 3 4 3 3 3 7 4 4 3 4 6 8 5 8 6 5 0 8 3
20 23 27 30 32 32 33 35 35 22 12 4 4 5 3 13 9 6 2 5 9 6 4 4 7 7 5 5 5 6 6 2 3 3 3 2 2 3 3 9 6 3 2 4 5 3 6
18 21 27 29 29 29 30 30 23 14 5 5 3 4 5 3 4 4 4 5 8 8 6 4 14 6 7 6 6 7 4 4 6 6 3 3 2 2 3 2 3 1 4 5 3 2 4
18 19 24 26 26 25 25 24 17 10 3 2 3 3 5 3 3 4 4 6 11 4 8 7 7 6 3 7 6 6 4 1 3 4 5 4 3 1 2 4 1 4 5 2 4 3 5
19 21 22 24 24 24 23 23 14 5 9 7 3 5 3 3 4 6 9 11 13 13 8 7 3 5 8 5 3 3 2 2 1 4 6 5 3 1 1 1 1 3 2 2 1 1 9
20 22 21 23 25 26 26 22 15 14 16 19 13 13 6 7 1 2 7 10 12 5 4 5 5 5 5 3 2 3 3 4 3 3 3 5 2 1 1 1 4 4 4 3 4 3 8
19 22 22 24 23 23 23 20 16 14 12 14 16 10 8 4 3 2 4 5 4 5 5 4 4 3 3 2 2 2 2 1 4 6 4 3 3 4 2 3 5 1 6 1 2 3 9
22 22 21 21 22 21 19 18 16 14 14 17 14 10 7 3 2 4 2 4 4 3 5 4 4 2 2 3 2 2 2 1 2 1 3 4 4 3 2 1 5 1 2 2 1 4 5
25 25 23 20 20 20 19 18 16 14 12 21 11 18 20 6 3 4 12 12 6 4 6 3 2 2 3 3 1 3 2 2 3 2 3 2 5 4 5 4 2 2 4 4 1 4 2

GFSGBSN_925_spd_135.txt.gz
Wind_Speed
37 36 36 34 32 30 30 27 25 25 21 20 17 16 15 14 12 12 10 9 11 11 13 13 11 10 3 2 3 3 2 2 3 1 5 2 3 3 4 3 0 1 1 4 7 6 3
35 40 39 39 37 34 34 32 29 27 26 23 20 18 18 15 14 13 11 9 10 11 12 13 8 7 1 1 7 3 2 0 3 3 2 2 2 2 4 3 2 1 4 7 2 9 3
28 25 43 43 38 40 38 36 34 31 29 28 25 20 19 17 15 14 12 9 9 10 12 8 4 4 1 5 4 2 2 2 2 2 1 2 5 3 3 3 2 2 4 4 4 7 3
20 23 23 41 45 46 43 39 38 35 33 31 28 24 20 18 15 13 10 9 10 8 7 3 2 2 4 2 4 1 2 3 1 1 1 2 5 5 3 2 4 3 3 4 3 10 2
25 24 24 29 28 48 47 45 43 40 37 34 31 28 23 21 16 12 7 8 9 6 3 3 2 1 4 2 2 1 1 2 4 6 7 8 5 3 3 3 2 6 3 5 10 11 6
27 27 28 27 28 25 47 46 48 43 41 39 37 30 26 23 16 10 5 4 3 1 3 2 0 1 2 3 3 3 3 6 5 3 3 6 4 3 3 2 1 3 4 5 11 7 16
27 29 30 32 31 30 31 47 46 47 45 43 40 35 29 24 15 8 4 3 3 1 4 6 4 2 3 4 2 3 2 4 3 7 3 4 3 4 6 5 4 1 3 10 15 11 11
30 31 32 34 34 32 34 30 47 49 47 48 43 38 31 25 17 10 7 4 4 5 5 7 4 3 4 5 4 2 4 3 3 3 3 3 4 4 7 7 5 3 7 6 7 5 13
32 33 33 34 34 35 35 33 28 50 49 49 47 42 35 25 16 12 10 8 8 6 2 5 6 5 5 7 5 7 4 3 4 3 2 3 6 4 4 3 7 6 3 4 9 11 12
35 34 36 36 35 36 37 37 35 32 49 51 49 45 36 19 9 12 8 15 11 10 2 5 5 6 5 6 2 3 4 4 2 4 6 5 2 2 5 2 2 5 3 10 14 12 5
37 37 38 36 37 36 40 41 40 37 43 50 50 47 42 35 4 11 11 21 16 3 2 4 3 5 2 7 9 4 3 4 5 4 4 3 4 3 3 1 2 5 12 15 13 11 6
38 38 39 40 41 44 43 43 42 40 37 52 48 47 40 26 9 8 24 21 10 3 10 5 5 5 7 2 2 4 4 7 5 5 5 2 0 2 2 2 1 7 7 6 1 2 3
41 42 40 42 44 48 46 42 42 42 41 48 49 48 45 29 10 21 27 8 2 6 2 7 6 8 6 4 4 3 4 4 4 5 3 2 1 2 2 3 3 7 5 3 1 2 4
42 42 43 44 42 46 51 49 46 45 40 45 49 46 40 29 27 33 18 2 7 9 7 4 6 13 6 7 2 4 6 5 2 4 3 6 4 4 1 1 2 2 3 1 3 4 9
39 43 46 43 52 63 65 60 57 51 46 47 43 24 25 28 37 32 8 9 8 8 8 10 9 14 4 3 6 4 2 7 4 4 4 4 2 1 1 1 3 2 1 2 2 5 4
44 47 46 49 67 72 77 67 58 55 57 58 33 15 12 34 35 28 7 11 6 2 8 14 5 6 7 8 5 4 7 3 4 2 2 4 3 1 1 1 1 2 0 1 0 3 5
36 39 45 56 72 73 67 59 56 62 69 61 22 6 16 30 29 9 10 8 5 2 6 5 5 5 6 8 5 4 6 3 4 5 3 4 2 3 1 3 5 2 2 1 2 2 3
31 36 41 66 62 44 37 49 66 75 73 46 9 7 29 37 7 5 10 7 2 6 2 3 5 7 6 6 4 4 6 4 7 8 7 2 3 3 4 1 4 2 4 3 1 1 5
26 27 36 49 33 35 44 62 78 84 77 31 7 4 20 29 10 13 10 11 4 5 5 3 4 3 4 6 6 7 6 1 7 5 8 7 2 2 2 2 0 3 3 3 3 3 9
15 12 24 50 28 35 55 73 83 78 57 29 5 6 4 5 1 18 18 11 6 1 4 4 6 6 7 4 4 7 7 2 4 3 8 6 4 5 5 2 3 3 5 4 3 3 5
5 12 15 35 35 63 70 68 64 52 47 21 2 6 7 13 9 18 14 13 10 5 3 3 3 7 8 5 4 6 5 5 4 8 3 3 5 4 6 9 5 9 10 5 5 8 6
4 11 19 22 30 41 48 42 32 31 24 7 6 8 4 15 13 18 7 10 16 5 4 2 9 11 7 7 5 8 9 5 5 3 3 0 4 4 3 8 9 8 7 6 6 6 9
8 14 19 24 29 29 24 26 26 20 10 3 2 12 7 17 11 13 6 9 11 10 7 7 19 8 9 6 5 10 4 6 9 8 5 5 5 4 2 2 3 5 7 5 4 5 3
16 19 21 24 26 29 24 18 15 16 16 12 5 5 6 11 12 14 12 18 12 5 9 9 13 8 4 13 10 10 10 8 7 3 5 7 6 3 2 2 3 2 4 3 3 3 2
17 21 22 23 25 26 17 16 12 15 12 10 4 5 6 14 11 13 18 16 16 16 13 7 4 5 13 5 4 5 2 3 2 4 6 2 4 3 2 2 1 2 4 1 2 3 3
19 22 22 23 23 17 14 11 16 13 12 10 14 11 4 9 5 4 15 20 14 11 5 5 9 2 7 3 3 4 5 5 6 5 3 5 4 1 3 2 4 1 4 1 5 3 2
17 22 23 23 22 20 14 16 12 6 9 11 9 13 10 5 3 2 5 7 5 6 7 4 4 4 3 2 2 2 3 1 8 9 6 6 3 6 5 3 2 3 1 7 2 1 6
19 21 24 25 24 22 20 16 15 13 9 22 13 14 12 4 5 6 3 4 4 3 6 5 4 2 2 3 2 3 2 3 3 4 6 6 7 4 3 3 4 3 4 3 2 1 3
21 23 23 23 22 19 16 19 16 17 16 25 13 24 23 7 4 13 21 18 6 4 8 3 3 3 3 4 2 3 2 1 4 4 0 3 3 4 5 2 3 3 2 5 3 2 1

GFSGBSN_925_spd_138.txt.gz
Wind_Speed
16 28 32 31 28 29 29 27 26 26 24 21 19 17 16 14 13 11 10 9 7 8 9 11 10 10 3 5 2 5 1 1 1 1 1 1 1 2 5 2 4 7 1 2 3 1 3
24 21 21 32 35 33 31 30 29 29 27 25 23 21 18 18 16 14 9 8 8 8 7 8 7 6 2 7 5 5 2 2 2 0 0 1 2 1 2 1 5 2 5 7 5 2 3
11 15 23 19 29 35 34 32 33 32 30 27 27 23 21 20 18 14 9 8 8 8 9 6 3 3 4 4 4 1 1 3 2 0 2 3 3 4 3 4 1 3 8 6 7 4 6
14 16 17 15 21 19 37 36 34 35 33 31 29 27 23 22 19 17 8 9 9 9 9 5 3 3 5 4 5 3 2 4 2 2 2 4 2 5 1 2 3 5 5 6 7 4 3
20 18 20 20 18 20 18 29 38 39 36 35 33 31 27 23 20 16 10 6 9 7 6 3 3 6 3 5 7 5 3 3 5 5 5 6 2 1 5 5 5 4 7 6 7 3 7
21 22 22 23 23 23 23 22 23 36 39 38 37 34 31 28 21 16 8 7 7 3 2 2 5 6 6 6 8 6 4 5 3 8 8 5 4 5 4 6 8 1 5 5 10 8 12
21 21 20 21 24 27 27 25 23 21 37 41 38 37 35 30 23 14 10 3 5 4 8 8 4 1 6 9 7 9 7 6 6 6 8 3 7 7 4 4 4 2 5 10 12 9 13
24 25 23 23 23 23 24 25 25 23 24 38 39 39 37 34 21 12 8 8 7 3 7 15 9 5 5 9 7 10 8 8 7 7 6 6 8 5 5 4 1 3 8 8 8 6 12
27 28 26 24 24 24 23 23 25 26 23 25 42 40 35 28 19 12 15 19 6 2 5 6 12 13 11 12 10 15 13 7 7 9 9 7 8 7 4 2 4 4 5 6 10 18 15
31 30 30 28 26 26 26 26 25 28 26 24 33 40 38 29 13 13 7 18 11 9 5 9 9 9 12 10 9 10 11 7 5 7 7 3 7 6 5 2 4 6 2 9 14 11 7
33 33 33 33 32 30 29 28 25 28 28 25 19 38 43 37 12 12 5 11 6 8 5 14 10 9 16 16 15 9 8 7 12 10 6 6 10 9 6 1 1 3 10 13 13 10 9
35 36 34 34 35 33 32 31 30 31 31 27 20 29 42 23 17 11 14 17 10 3 9 8 10 14 19 13 10 12 9 6 9 7 4 7 2 4 3 2 1 6 9 6 4 4 5
37 39 39 37 37 36 35 34 32 32 29 24 20 25 42 31 10 21 29 13 7 5 3 10 11 17 18 18 13 19 19 14 9 8 10 8 8 5 1 2 4 5 7 3 4 4 3
38 39 41 39 40 39 37 37 34 32 30 25 19 26 41 27 21 41 27 3 6 11 9 3 14 21 16 20 13 16 18 13 6 5 11 11 7 10 4 1 2 2 4 2 4 4 9
35 39 41 41 42 39 39 39 36 31 23 22 14 34 23 25 34 41 9 3 12 9 12 15 17 20 11 19 10 15 17 13 8 10 6 7 6 7 3 2 3 5 2 3 2 6 5
38 40 40 42 42 44 44 43 41 33 31 31 22 18 13 31 42 29 7 14 8 7 12 19 9 15 19 22 16 15 16 11 9 7 5 5 6 8 6 6 4 2 4 4 4 4 5
41 46 46 43 43 45 46 46 46 38 30 31 19 6 21 40 33 8 7 9 7 13 16 16 10 11 14 23 15 18 18 10 10 11 6 8 3 8 4 7 9 7 5 3 2 4 4
45 50 40 41 47 50 51 50 51 43 35 44 14 10 37 46 7 4 6 8 7 16 16 7 9 6 18 23 14 10 12 9 14 16 12 4 2 6 6 5 3 4 7 5 4 5 6
49 32 35 42 47 51 54 58 63 58 51 51 12 4 34 40 10 11 10 9 11 9 11 12 7 8 15 16 9 12 12 4 15 15 13 9 6 6 6 5 5 10 11 6 3 4 11
25 29 30 36 41 53 63 70 73 58 69 47 7 6 3 6 4 22 18 18 14 10 4 3 6 13 14 16 9 16 12 7 12 10 9 5 4 2 5 3 7 9 12 12 7 5 10
25 22 24 27 36 57 68 67 54 61 89 47 5 6 14 15 14 22 25 22 23 12 7 6 3 13 13 8 15 11 13 16 9 11 7 3 4 4 5 4 6 8 10 11 11 13 6
18 15 17 16 36 22 27 49 62 88 80 13 8 8 15 18 20 21 18 20 27 16 13 11 10 14 14 15 8 19 21 15 11 9 10 4 4 6 5 8 10 12 11 11 14 13 15
14 8 11 12 23 37 44 44 60 57 50 4 5 14 15 21 20 19 19 22 23 23 6 14 16 12 11 9 10 16 11 13 15 16 10 8 6 7 3 6 5 8 17 14 4 7 7
10 6 5 5 20 26 35 35 29 20 21 15 20 15 8 15 19 22 27 26 27 23 10 16 20 11 9 23 23 19 16 14 13 9 9 9 9 5 5 6 7 3 3 10 8 7 6
11 7 7 7 17 23 27 31 32 31 30 27 16 6 5 13 15 18 23 19 16 16 14 14 2 16 19 17 12 10 5 6 5 6 7 6 7 4 4 10 2 4 8 6 4 1 5
14 12 14 14 17 19 23 25 30 30 26 26 14 12 6 12 8 20 20 21 17 11 7 6 19 16 7 4 4 7 6 10 8 7 6 6 4 5 5 4 5 5 8 2 4 4 6
15 15 17 12 10 14 24 24 20 20 21 18 12 19 8 7 5 18 15 18 16 17 9 15 12 5 2 4 6 7 5 7 10 13 9 7 6 9 7 6 2 5 5 6 5 5 3
15 17 17 18 14 17 20 18 15 17 20 22 18 21 9 7 9 3 4 9 14 12 12 15 8 2 4 6 5 4 4 4 6 10 13 8 9 6 7 8 8 9 7 4 5 5 3
18 17 19 20 18 18 18 12 13 13 18 21 11 19 21 8 9 22 24 15 6 15 17 6 6 8 4 5 3 3 3 4 9 7 2 6 2 4 6 1 8 7 1 5 3 2 2

GFSGBSN_925_spd_144.txt.gz
Wind_Speed
18 18 14 12 17 22 23 22 22 20 20 19 18 18 18 17 16 17 14 13 15 13 12 13 16 17 9 7 9 7 3 2 5 10 11 9 8 11 13 12 9 7 12 3 6 3 6
9 9 14 18 15 14 18 23 24 23 22 21 20 20 19 19 18 17 16 14 14 16 14 12 15 15 8 13 1 7 4 4 7 8 11 7 7 8 9 13 8 10 8 10 10 10 3
11 11 11 12 11 16 16 15 22 26 24 21 21 21 22 20 19 18 17 16 15 16 16 12 13 11 11 17 6 6 6 8 8 7 11 9 7 7 6 8 7 8 13 14 17 13 5
9 10 11 11 12 14 12 12 15 18 22 26 26 23 24 22 21 19 15 17 16 16 15 14 8 8 8 11 8 13 10 9 6 6 8 9 6 10 9 9 7 12 14 13 10 14 7
13 13 11 12 14 14 16 17 14 14 14 18 23 26 24 23 22 20 16 16 16 17 15 11 6 8 10 3 11 15 13 12 7 6 7 5 8 10 6 8 10 13 12 14 9 12 7
15 14 13 13 13 15 16 16 18 16 16 18 16 20 23 22 20 20 17 16 15 15 12 11 12 9 17 10 8 13 11 11 6 7 7 8 7 8 8 10 11 9 17 11 3 9 9
18 17 16 15 15 15 17 16 14 19 17 17 17 15 18 22 21 19 14 8 4 4 11 11 9 7 3 14 5 11 14 10 11 7 12 13 9 12 15 15 11 4 9 11 8 2 2
21 21 18 16 16 14 16 14 15 14 14 13 14 13 14 18 24 20 10 3 4 4 7 17 23 24 23 10 10 13 14 11 12 14 15 13 12 16 8 2 3 7 11 13 13 6 3
21 21 21 20 17 16 15 16 15 14 14 12 13 13 11 16 21 15 13 5 6 1 3 10 18 21 21 22 19 15 17 17 14 14 17 17 7 2 8 6 7 11 14 13 8 12 13
21 22 22 22 21 20 19 18 18 16 13 13 11 10 9 14 14 10 5 14 11 5 2 7 9 14 26 18 22 28 25 17 15 17 16 15 17 8 7 10 9 12 7 3 6 8 9
24 25 25 24 24 24 22 21 18 17 15 11 10 8 7 14 9 8 7 14 14 4 5 3 9 4 13 27 4 20 30 19 21 18 13 14 10 8 13 14 11 5 2 6 10 12 15
26 24 23 23 23 23 24 24 21 17 16 13 10 9 7 19 8 8 16 24 11 2 9 7 6 10 15 24 20 7 23 18 15 18 19 16 6 10 14 7 4 5 7 12 14 13 11
26 26 25 25 26 25 24 23 21 19 16 15 13 12 15 17 5 20 28 12 2 8 3 9 9 12 17 20 24 15 23 21 15 15 20 15 15 9 4 7 5 8 9 4 7 8 8
29 28 27 24 22 22 21 23 23 21 19 17 16 15 19 18 13 31 14 2 12 14 19 2 11 15 18 22 23 21 21 20 24 19 11 14 11 18 13 16 12 14 15 7 5 8 6
26 27 28 29 27 27 25 24 21 22 21 18 16 18 15 23 23 32 5 8 6 19 17 11 13 14 19 22 12 21 21 19 20 21 13 14 14 17 14 15 8 8 6 5 3 11 5
28 29 30 29 30 29 25 22 24 22 23 20 20 14 21 22 32 20 7 12 5 19 22 14 13 16 20 23 22 20 16 14 22 23 17 6 5 15 8 3 12 8 4 3 4 4 10
30 31 31 29 31 31 31 29 25 24 23 23 20 4 9 26 31 7 9 11 13 19 22 16 19 16 21 19 23 16 13 10 19 19 19 8 5 12 12 11 13 9 8 5 5 7 4
33 33 34 32 33 33 32 30 27 26 26 24 14 7 23 38 9 3 10 17 23 15 20 19 14 21 19 17 17 20 19 13 6 16 17 7 3 7 18 13 18 14 13 14 3 6 7
35 35 36 37 36 36 35 35 33 32 28 24 5 8 28 25 10 9 15 25 24 20 18 19 16 20 18 17 11 17 17 12 1 4 8 8 4 4 11 8 9 8 15 16 13 4 9
35 36 38 40 40 40 39 39 37 35 35 35 4 7 5 8 13 21 23 23 26 24 26 24 23 19 21 19 12 9 13 6 5 12 10 7 3 8 10 6 9 11 17 16 13 7 7
38 35 36 36 40 40 41 42 41 40 41 42 9 6 7 7 15 24 26 20 27 25 24 19 22 25 19 18 19 23 17 9 4 4 0 4 4 9 9 8 7 11 15 19 12 14 6
32 37 39 43 40 43 46 44 44 41 45 33 10 7 11 13 25 24 23 27 28 27 24 30 26 28 24 22 22 19 21 14 11 10 14 3 3 11 9 11 10 10 12 13 15 17 18
37 40 43 43 41 50 49 46 45 50 51 17 24 22 11 16 20 18 24 30 32 26 25 25 27 22 21 25 19 14 17 13 10 10 5 4 3 5 6 11 12 15 10 12 4 10 10
40 44 47 50 41 31 27 32 33 42 58 29 17 18 13 15 20 23 31 32 30 30 25 22 20 22 20 11 8 10 12 13 9 15 11 9 12 4 4 5 15 10 5 14 18 11 11
52 41 26 22 19 24 30 37 42 48 54 35 30 14 16 22 19 27 30 29 27 24 24 23 24 23 11 17 12 9 5 6 15 17 16 13 7 5 6 10 7 4 7 9 9 12 12
15 9 12 13 15 21 29 38 49 56 63 62 47 45 10 16 26 25 22 25 19 21 18 23 7 16 20 12 7 9 8 9 10 11 16 14 7 4 6 10 8 4 12 4 7 5 11
7 6 9 12 19 19 24 29 47 71 87 72 51 59 22 17 16 23 20 24 25 20 10 13 13 9 12 9 8 4 5 14 9 15 17 9 6 11 11 8 4 10 8 7 5 5 13
2 4 6 11 13 25 16 23 17 13 44 82 50 60 37 16 10 24 22 21 21 18 10 13 11 4 6 6 6 5 5 10 7 12 14 9 9 9 9 9 12 15 8 2 8 11 11
2 1 2 11 17 6 6 8 27 27 40 47 26 53 43 5 1 4 7 16 28 23 11 18 4 14 6 6 5 4 6 6 9 8 14 8 7 6 8 4 11 11 13 10 7 11 8

GFSGBSN_925_spd_147.txt.gz
Wind_Speed
7 14 14 11 10 13 18 18 17 17 17 16 16 14 16 16 15 15 14 14 14 15 16 17 19 21 13 4 8 5 5 4 4 2 8 6 6 5 5 7 9 2 4 6 3 6 2
6 5 5 9 12 11 11 12 16 18 18 18 18 16 16 17 17 15 16 17 15 15 16 15 16 17 3 6 5 5 3 5 7 9 12 8 4 4 4 5 5 5 7 7 4 4 4
6 7 8 8 8 7 8 10 10 12 16 19 18 18 16 16 18 18 16 18 17 15 15 14 14 10 6 13 11 8 6 8 11 12 4 12 4 4 7 7 6 7 6 8 9 7 3
9 7 6 6 7 8 8 9 10 9 11 13 17 20 20 19 17 17 17 19 17 15 15 11 13 5 7 14 13 19 18 11 10 7 8 12 5 4 2 5 6 5 4 4 8 9 4
8 9 10 10 9 10 10 12 11 12 11 12 15 15 17 19 19 17 18 17 17 16 16 11 7 4 9 9 11 18 12 10 12 8 6 10 3 4 5 2 4 4 5 8 4 7 7
12 11 11 10 8 9 8 7 10 12 14 13 13 14 15 15 17 16 15 14 16 17 7 6 8 5 9 6 14 17 14 12 4 5 4 3 3 2 0 3 5 5 9 8 7 8 7
16 15 14 13 11 10 11 10 8 10 9 9 10 11 15 14 12 16 13 4 4 2 7 10 9 7 12 9 6 7 14 6 4 3 6 5 3 7 9 10 13 11 5 5 2 4 5
17 17 17 16 13 10 9 9 9 10 9 9 9 8 9 13 10 14 8 4 3 4 6 14 21 19 29 21 9 7 11 6 6 9 5 6 9 11 12 7 1 4 4 6 7 5 3
18 19 18 17 15 13 11 10 10 10 10 9 7 8 8 8 9 12 8 4 9 1 3 7 12 14 13 23 18 11 12 9 6 9 10 11 10 16 10 5 4 4 4 6 5 5 1
20 18 17 16 16 16 15 14 13 12 12 10 8 5 7 3 7 7 5 11 6 4 4 6 8 10 14 15 14 27 22 12 8 12 11 10 15 12 4 4 6 4 4 6 4 4 3
20 20 20 20 19 17 18 17 15 13 11 10 8 7 5 7 7 6 4 16 10 2 5 5 6 7 6 17 6 16 27 12 16 12 7 8 3 5 7 6 6 3 7 3 4 4 4
21 20 20 19 18 16 15 15 16 16 14 11 9 8 7 9 5 4 11 19 8 3 11 6 6 6 8 17 13 3 11 8 10 10 13 9 6 7 7 3 1 7 5 3 4 2 4
22 21 21 19 18 20 20 18 18 16 15 13 11 9 13 11 4 11 18 10 4 8 4 13 8 6 8 11 21 13 8 18 11 13 16 11 15 4 6 4 5 5 5 2 2 2 6
22 22 22 19 21 19 17 17 17 18 17 16 14 14 15 18 14 17 16 3 10 9 20 3 4 5 12 11 14 18 10 14 19 7 3 10 5 10 5 7 7 7 8 5 6 4 3
21 19 19 20 20 19 20 19 18 17 18 17 15 17 19 21 17 29 6 10 9 10 12 18 23 11 9 15 8 14 18 11 14 15 9 8 10 4 10 6 8 5 5 6 1 3 1
22 22 22 22 23 22 22 22 20 19 18 18 18 11 19 22 25 23 7 13 8 9 11 13 23 8 13 15 13 12 9 11 15 15 13 4 1 4 7 6 5 4 1 3 1 3 5
24 25 25 24 24 24 24 23 22 20 18 18 18 4 8 27 30 6 11 10 15 18 10 7 11 12 8 9 16 12 9 5 14 12 14 9 4 1 6 4 7 2 2 4 4 4 4
28 28 28 28 27 28 26 24 24 23 21 16 5 7 12 36 8 4 10 20 16 15 18 15 6 5 13 7 4 13 11 8 5 5 16 8 4 5 9 8 9 5 7 6 4 3 3
28 29 29 29 29 29 28 27 27 25 25 10 3 4 19 25 10 7 7 19 18 12 19 13 14 10 8 10 5 3 1 3 9 6 3 6 4 4 3 2 1 4 9 11 6 2 4
27 29 31 31 31 31 31 31 31 30 30 26 3 4 5 9 5 18 15 16 21 18 21 17 11 11 6 6 7 4 6 2 5 5 13 6 2 6 11 2 5 5 9 11 12 5 4
28 29 31 33 32 33 33 33 34 35 34 30 7 6 5 6 16 11 17 14 23 16 18 14 10 15 10 7 11 9 7 6 5 4 5 4 3 4 4 9 13 7 8 16 10 10 8
27 28 28 31 34 35 35 34 35 37 36 32 7 7 5 3 18 23 21 18 17 21 10 23 18 20 15 18 14 15 7 6 5 3 5 4 8 2 13 14 13 12 10 11 14 9 11
30 32 33 33 33 34 36 38 38 40 39 20 20 18 8 9 7 17 19 26 28 22 21 21 20 14 17 21 15 9 8 9 7 9 5 7 6 4 6 14 17 14 8 7 5 4 7
31 32 35 36 37 39 41 43 44 44 44 35 20 13 11 17 14 14 25 27 27 27 24 16 20 15 22 6 7 6 9 3 9 7 8 9 9 5 1 4 15 5 11 10 12 9 6
31 36 36 41 44 49 52 48 51 53 53 49 39 23 13 14 15 19 16 19 18 14 19 20 15 18 8 6 3 3 1 2 1 6 7 6 7 2 6 11 10 3 4 5 4 6 9
37 40 46 54 41 32 32 40 48 38 52 55 45 38 14 15 17 18 14 24 14 16 12 14 7 5 6 4 3 5 5 5 6 5 14 13 8 6 4 11 13 5 16 5 2 3 7
41 42 19 17 18 21 23 25 33 34 36 44 32 48 22 11 16 17 16 14 11 8 9 5 5 2 5 2 3 3 3 7 7 8 11 12 9 15 6 1 5 4 6 4 5 5 9
12 10 14 16 19 22 27 28 31 36 44 45 32 49 33 10 4 24 16 20 10 12 11 5 4 1 3 6 7 4 4 5 3 6 11 11 9 5 3 5 8 5 5 3 9 8 9
9 10 11 15 20 27 30 30 34 40 51 59 20 42 42 6 3 6 22 18 8 16 12 8 4 5 5 3 3 4 3 3 6 3 5 3 6 5 7 4 1 6 10 11 13 11 10

GFSGBSN_925_spd_150.txt.gz
Wind_Speed
4 10 13 12 8 7 11 15 16 16 15 14 13 13 12 12 11 12 13 13 14 16 17 18 18 20 9 5 7 7 6 3 5 2 4 3 4 3 3 4 5 5 3 2 6 8 7
4 4 3 5 9 11 12 10 11 15 16 15 15 13 14 13 11 13 14 14 15 14 16 17 18 18 3 3 3 5 6 4 5 6 6 2 3 4 5 4 0 3 3 3 1 2 3
5 4 4 6 5 5 6 8 8 9 13 13 15 15 14 12 11 13 14 15 17 15 14 15 15 12 1 12 9 4 7 10 5 8 4 3 6 3 3 7 5 3 5 4 4 3 3
7 6 4 3 3 3 4 6 8 8 8 14 14 14 17 16 13 13 13 15 15 16 14 12 13 7 7 15 16 21 15 18 11 9 5 6 4 0 2 4 8 5 3 2 4 4 6
10 7 7 8 8 7 6 9 10 9 9 9 12 14 15 15 15 13 13 13 15 16 13 10 5 3 9 11 8 15 22 15 14 9 5 4 3 2 4 1 4 3 4 4 8 7 5
11 10 9 8 6 6 7 6 7 7 8 9 10 12 13 11 13 11 10 11 11 17 6 3 2 4 7 5 6 6 11 8 3 4 1 2 3 1 3 3 6 5 4 4 5 3 3
15 14 12 10 10 8 7 7 5 5 6 7 7 6 8 9 11 11 8 3 4 2 3 8 7 5 6 10 8 6 11 7 4 3 6 3 2 7 11 7 6 5 4 5 4 4 4
17 15 15 14 13 10 8 6 6 6 6 6 6 7 7 7 7 9 5 3 1 1 7 12 16 16 22 12 5 10 9 6 5 8 4 1 10 13 7 7 9 11 11 7 1 2 4
18 17 16 13 13 13 11 9 7 6 7 6 7 5 6 8 4 7 6 6 6 3 4 6 8 10 10 13 14 15 8 6 5 7 9 10 12 7 11 11 10 5 4 4 5 2 4
21 20 19 16 15 16 14 13 10 9 8 8 6 5 4 3 4 7 4 11 7 4 4 6 6 8 11 10 12 26 23 9 6 10 8 8 16 17 11 12 10 7 4 4 4 3 4
21 20 17 18 17 15 13 14 14 12 8 7 6 4 3 4 6 5 2 14 11 3 2 6 6 7 6 12 3 9 34 7 16 9 7 9 2 7 13 10 7 6 4 4 2 3 3
24 23 20 18 16 15 16 14 13 12 12 10 7 6 8 6 4 2 4 17 6 4 11 5 3 7 6 9 4 2 14 4 5 7 10 7 6 5 7 2 5 8 5 6 5 3 3
22 21 20 19 19 17 17 15 14 13 12 12 10 9 14 12 5 11 13 7 3 5 3 6 4 5 6 7 9 2 12 16 13 11 18 10 18 6 5 5 4 5 7 1 3 0 6
21 21 19 19 18 17 16 15 15 16 15 13 13 11 12 13 8 14 13 2 7 8 15 3 2 13 10 8 6 13 6 9 16 5 3 10 6 15 6 9 7 6 8 6 6 5 3
22 21 19 20 21 21 20 20 16 13 13 14 14 14 14 18 15 18 5 7 9 6 5 8 15 15 5 6 11 15 20 18 12 18 10 6 7 4 6 6 13 5 5 6 3 3 2
28 24 22 20 19 19 20 20 19 17 14 14 13 10 12 20 22 16 7 13 6 9 5 4 4 5 8 7 5 8 10 11 11 17 6 6 3 1 2 5 3 7 6 3 1 5 5
27 25 23 22 21 20 20 20 21 20 17 15 10 3 5 25 24 5 9 9 16 18 7 5 4 5 5 4 11 10 6 10 9 12 17 7 4 2 3 2 7 3 3 3 5 4 4
23 23 25 24 23 23 22 22 22 21 19 14 5 5 8 33 9 3 11 10 17 15 13 8 3 7 7 6 4 4 9 8 7 7 14 9 5 9 6 5 5 7 7 6 4 3 3
23 23 24 24 25 25 25 24 24 24 22 13 3 3 11 25 10 13 7 11 15 16 15 9 15 8 4 4 5 8 6 6 5 4 9 7 2 1 2 1 3 3 4 4 3 3 5
22 23 24 25 26 26 26 25 25 25 24 23 3 4 3 8 7 16 16 16 18 17 14 17 4 17 9 5 7 5 7 6 7 2 6 10 5 8 15 1 3 5 5 9 6 5 7
21 22 23 24 26 27 28 27 27 27 28 24 5 4 5 5 13 17 16 13 20 12 15 15 6 14 11 8 7 6 6 4 5 2 6 3 7 5 2 8 4 3 8 10 11 14 9
20 21 23 25 26 28 29 31 31 30 30 27 5 4 2 7 1 19 22 20 19 19 11 21 21 21 13 13 9 5 6 5 4 0 5 6 1 2 3 4 4 10 16 17 11 13 10
21 23 25 27 28 28 30 35 37 36 35 18 14 7 1 11 19 12 21 29 31 27 21 23 17 15 10 20 7 8 6 6 7 8 8 8 7 4 10 9 8 7 23 18 8 5 7
24 26 27 29 30 31 34 33 36 39 42 33 13 8 8 10 10 14 16 18 23 24 18 13 17 12 25 6 4 4 4 4 8 7 5 6 6 3 0 7 7 8 11 21 19 7 8
27 28 29 29 31 32 34 37 38 39 43 38 30 15 9 10 13 16 17 12 14 17 16 15 17 13 3 4 1 1 2 3 3 3 5 5 5 4 4 6 7 7 5 7 11 5 1
26 27 33 36 38 39 40 42 43 43 44 42 35 34 10 10 18 20 14 15 11 10 9 16 5 6 4 3 4 5 5 4 5 3 4 7 10 5 4 4 8 5 6 1 4 3 6
28 34 37 40 44 45 47 51 53 53 52 47 28 41 21 11 14 13 16 15 17 7 4 3 6 5 6 6 6 4 4 6 7 9 6 6 4 9 4 4 6 5 2 4 8 4 10
35 37 37 20 17 21 23 24 28 38 56 54 49 42 33 9 10 17 21 19 5 11 13 4 3 2 1 6 4 4 4 6 4 6 8 10 8 4 4 5 10 3 3 5 6 10 13
37 27 15 18 19 21 25 27 30 29 31 48 13 53 49 12 4 30 30 40 22 10 9 5 5 4 5 3 3 2 1 2 6 4 2 2 6 6 7 5 2 2 5 10 13 16 9